COSMOS 2533

Last updated on Wed Sep 17 2025 00:02:50 GMT+0000 (Coordinated Universal Time)

1 43867U 18107A 25258.66985633 -.00000053 00000+0 00000+0 0 9990 2 43867 0.0158 121.8565 0000895 154.2179 29.9378 1.00260974 24680
UTC large
Height (km)
Speed (km/s)
/
Latitude / Longitude
Inclination (degrees)
Orbital Period (minutes)
Azimuth
Elevation
Range (km)
Doppler Factor

Next 0 passes for location: London (51.5072 / 0.1276)

Sorry there are no passes over London.